Flag for U.S.A. Weather past 2 weeks in Albuquerque, New Mexico, U.S.A.

Now
62 °F

Passing clouds.


Feels Like: 62 °F
Forecast: 45 / 69 °F
Wind: 12 mph from North

Location: Albuquerque International Airport

Current Time: May 24, 2015 at 12:08:27 AM

Latest Report: May 23, 2015 at 10:52 PM


Visibility: 10 mi

Pressure: 29.79 "Hg

Humidity: 25%

Dew point: 26 °F

Location of AlbuquerqueLocation

Historic Weather in Albuquerque — Graph

°F

Albuquerque temperature yesterday

Maximum temperature yesterday: 71 °F (at 3:52 PM)
Minimum temperature yesterday: 52 °F (at 3:52 AM)
Average temperature yesterday: 63 °F

Past Weeks' High & Low Weather Summary

 TemperatureHumidityPressure
High78 °F (May 18, 1:52 PM)93% (May 16, 3:52 AM)30.11 "Hg (May 16, 3:52 AM)
Low39 °F (May 10, 4:52 AM)10% (May 14, 6:52 PM)29.66 "Hg (May 14, 6:52 PM)
Average59 °F47%29.88 "Hg
* Reported May 8 10:52 PM — May 23 10:52 PM, Albuquerque, Weather by CustomWeather, © 2015

Note: Actual official high and low records may vary slightly from our data, if they occured in-between our weather recording intervals... More about our weather records

Advertising

Albuquerque weather history for previous 24 hours

 ConditionsComfort  
Time TempWeatherWind HumidityBarometerVisibility
10:52 PM
Sat, May 23
62 °FPassing clouds.12 mph25%29.79 "Hg10 mi
9:52 PM65 °FPassing clouds.12 mph21%29.78 "Hg10 mi
8:52 PM67 °FPartly sunny.7 mph19%29.74 "Hg10 mi
7:52 PM69 °FBroken clouds.10 mph14%29.72 "Hg10 mi
6:52 PM69 °FPartly sunny.6 mph15%29.70 "Hg10 mi
5:52 PM70 °FPartly sunny.16 mph15%29.71 "Hg10 mi
4:52 PM70 °FScattered clouds.13 mph14%29.72 "Hg10 mi
3:52 PM71 °FScattered clouds.6 mph15%29.74 "Hg10 mi
2:52 PM70 °FScattered clouds.No wind16%29.76 "Hg10 mi
1:52 PM66 °FPartly sunny.6 mph22%29.80 "Hg10 mi
12:52 PM67 °FScattered clouds.5 mph25%29.81 "Hg10 mi
11:52 AM64 °FScattered clouds.3 mph25%29.83 "Hg10 mi
10:52 AM63 °FPassing clouds.3 mph28%29.85 "Hg10 mi
9:52 AM61 °FPassing clouds.7 mph31%29.86 "Hg10 mi
8:52 AM60 °FPassing clouds.7 mph31%29.85 "Hg10 mi
7:52 AM58 °FPassing clouds.6 mph33%29.84 "Hg10 mi
6:52 AM55 °FPassing clouds.6 mph37%29.84 "Hg10 mi
5:52 AM55 °FPassing clouds.No wind39%29.82 "Hg10 mi
4:52 AM52 °FPassing clouds.3 mph45%29.83 "Hg10 mi
3:52 AM52 °FPassing clouds.3 mph43%29.83 "Hg10 mi
2:52 AM57 °FPassing clouds.5 mph36%29.81 "Hg10 mi
1:52 AM59 °FPassing clouds.9 mph29%29.78 "Hg10 mi
12:52 AM61 °FPassing clouds.5 mph25%29.80 "Hg10 mi
Weather by CustomWeather, © 2015

See weather overviewHow to use our weather pages